Track STARLINK-2053 now! 10-day predictions STARLINK-2053 is classified as:
1 47663U 21012AV 21109.83334491 .00021674 00000-0 15843-3 0 9994 2 47663 53.0458 149.5956 0002148 23.4302 271.9542 15.73197689 10659